GW3580 Weather Reports


time (UTC)temp
C
wind
direction
speed
KPH
gust
KPH
rain 1hr
cm
rain 24hr
cm
rain mn
cm
humidity
%
barometer
mb
20260504150947 13 205 0.0 1.6 0.00 0.00 0.00 70 1014.3
20260504150444 13 34 1.6 3.2 0.00 0.00 0.00 70 1014.2
20260504140910 12 249 3.2 3.2 0.00 0.00 0.00 71 1014.0
20260504140406 12 193 0.0 1.6 0.00 0.00 0.00 71 1014.2
20260504130331 13 307 0.0 0.0 0.00 0.00 0.00 70 1013.7
20260504120254 13 218 1.6 3.2 0.00 0.00 0.00 70 1013.5
20260504110218 13 256 3.2 6.4 0.00 0.00 0.00 67 1013.5
20260504100142 13 71 1.6 3.2 0.00 0.00 0.00 67 1013.0
20260504090104 13 250 4.8 6.4 0.00 0.00 0.00 64 1013.0
20260504081535 13 254 3.2 3.2 0.00 0.00 0.00 64 1013.1
20260504081031 13 266 3.2 3.2 0.00 0.00 0.00 64 1013.0
20260504080527 13 274 3.2 3.2 0.00 0.00 0.00 64 1012.9
20260504050340 15 281 8.0 9.7 0.00 0.00 0.00 56 1011.8
20260504045838 15 249 8.0 11.3 0.00 0.00 0.00 56 1011.9
20260504045332 15 289 9.7 11.3 0.00 0.00 0.00 56 1011.6
20260504044829 15 253 12.9 14.5 0.00 0.00 0.00 55 1011.6
20260504044327 15 305 6.4 9.7 0.00 0.00 0.00 56 1011.4
20260504043824 15 267 8.0 11.3 0.00 0.00 0.00 57 1011.3
20260504043320 16 274 8.0 9.7 0.00 0.00 0.00 57 1011.4
20260504042818 16 231 8.0 9.7 0.00 0.00 0.00 56 1011.3
20260504042314 16 264 8.0 9.7 0.00 0.00 0.00 56 1011.1
20260504041811 16 326 9.7 12.9 0.00 0.00 0.00 55 1011.1
20260504041307 16 257 8.0 11.3 0.00 0.00 0.00 56 1011.0
20260504040803 16 239 9.7 11.3 0.00 0.00 0.00 56 1010.9
20260504040301 16 273 9.7 12.9 0.00 0.00 0.00 54 1010.9
20260504035756 16 248 6.4 8.0 0.00 0.00 0.00 55 1010.6
20260504035254 16 248 3.2 6.4 0.00 0.00 0.00 55 1010.8
20260504034751 16 275 4.8 6.4 0.00 0.00 0.00 55 1010.5
20260504034249 16 235 6.4 9.7 0.00 0.00 0.00 54 1010.3
20260504033746 16 263 11.3 14.5 0.00 0.00 0.00 54 1010.3
20260504033243 17 277 8.0 9.7 0.00 0.00 0.00 55 1010.2
20260504032740 17 251 4.8 8.0 0.00 0.00 0.00 54 1010.2
20260504032237 17 264 8.0 11.3 0.00 0.00 0.00 54 1010.2
20260504031733 17 267 6.4 9.7 0.00 0.00 0.00 54 1010.0
20260504031232 17 254 9.7 11.3 0.00 0.00 0.00 53 1009.8
20260504030727 17 247 8.0 9.7 0.00 0.00 0.00 53 1009.8
20260504030225 17 259 8.0 9.7 0.00 0.00 0.00 53 1009.9
20260504025721 18 242 9.7 12.9 0.00 0.00 0.00 53 1009.8
20260504025218 18 296 11.3 12.9 0.00 0.00 0.00 53 1009.6
20260504024715 18 282 9.7 12.9 0.00 0.00 0.00 52 1009.4
20260504024211 18 283 6.4 8.0 0.00 0.00 0.00 53 1009.4
20260504023708 18 249 8.0 9.7 0.00 0.00 0.00 52 1009.3
20260504023204 19 267 8.0 9.7 0.00 0.00 0.00 53 1009.3
20260504022700 19 247 6.4 8.0 0.00 0.00 0.00 52 1009.2
20260504022156 20 241 8.0 11.3 0.00 0.00 0.00 51 1009.1
20260504021655 20 257 11.3 14.5 0.00 0.00 0.00 51 1008.8
20260504021151 20 242 8.0 9.7 0.00 0.00 0.00 51 1008.9
20260504020648 20 255 9.7 11.3 0.00 0.00 0.00 51 1008.8
20260504020144 21 261 14.5 17.7 0.00 0.00 0.00 50 1008.7
20260504015641 21 256 8.0 9.7 0.00 0.00 0.00 49 1008.7
20260504015137 22 260 3.2 3.2 0.00 0.00 0.00 49 1008.5
20260504014632 22 276 1.6 1.6 0.00 0.00 0.00 48 1008.7
20260504014130 22 254 3.2 3.2 0.00 0.00 0.00 47 1008.7
20260504013628 22 247 3.2 3.2 0.00 0.00 0.00 48 1008.7
20260504013124 22 7 0.0 0.0 0.00 0.00 0.00 46 1008.5
20260504012622 22 30 0.0 1.6 0.00 0.00 0.00 44 1008.6
20260504012120 22 41 0.0 0.0 0.00 0.00 0.00 44 1008.7
20260504011616 23 323 0.0 0.0 0.00 0.00 0.00 44 1008.6
20260504011112 23 47 0.0 1.6 0.00 0.00 0.00 43 1008.7
20260504010608 23 253 1.6 1.6 0.00 0.00 0.00 44 1008.6
20260504010104 23 266 3.2 3.2 0.00 0.00 0.00 42 1008.7
20260504005601 23 260 1.6 3.2 0.00 0.00 0.00 41 1008.7
20260504005058 23 261 4.8 6.4 0.00 0.00 0.00 42 1008.5
20260504004556 24 236 0.0 1.6 0.00 0.00 0.00 40 1008.6
20260504004053 25 247 3.2 3.2 0.00 0.00 0.00 39 1008.6
20260504003549 24 267 1.6 1.6 0.00 0.00 0.00 39 1008.5
20260504003046 23 260 0.0 1.6 0.00 0.00 0.00 39 1008.7
20260504002543 23 253 4.8 6.4 0.00 0.00 0.00 39 1008.7
20260504002040 23 238 4.8 6.4 0.00 0.00 0.00 41 1008.8
20260504001538 23 240 4.8 6.4 0.00 0.00 0.00 40 1008.6
20260504001034 23 18 3.2 6.4 0.00 0.00 0.00 39 1008.7
20260504000531 23 24 1.6 1.6 0.00 0.00 0.00 40 1008.8
20260504000029 23 253 4.8 6.4 0.00 0.00 0.00 43 1009.1
20260503235527 23 269 1.6 1.6 0.00 0.00 0.00 42 1008.8
20260503235023 23 224 3.2 3.2 0.00 0.00 0.00 42 1009.0
20260503234521 23 345 0.0 0.0 0.00 0.00 0.00 41 1008.9
20260503234019 23 234 4.8 6.4 0.00 0.00 0.00 42 1008.9
20260503233515 23 251 0.0 0.0 0.00 0.00 0.00 41 1009.1
20260503233011 23 305 3.2 3.2 0.00 0.00 0.00 41 1009.0
20260503232508 23 265 6.4 6.4 0.00 0.00 0.00 43 1009.0
20260503232006 23 317 3.2 3.2 0.00 0.00 0.00 42 1009.0
20260503231504 23 250 3.2 6.4 0.00 0.00 0.00 43 1009.0
20260503231000 23 285 4.8 6.4 0.00 0.00 0.00 44 1009.0
20260503230457 23 234 0.0 1.6 0.00 0.00 0.00 45 1009.1
20260503225954 23 287 0.0 0.0 0.00 0.00 0.00 43 1009.0
20260503225451 22 243 3.2 3.2 0.00 0.00 0.00 44 1009.2
20260503224946 22 329 0.0 0.0 0.00 0.00 0.00 46 1009.2
20260503224444 22 23 0.0 0.0 0.00 0.00 0.00 48 1009.2
20260503223941 22 279 1.6 3.2 0.00 0.00 0.00 45 1009.5
20260503223439 23 314 1.6 1.6 0.00 0.00 0.00 45 1009.4
20260503222934 23 24 1.6 1.6 0.00 0.00 0.00 43 1009.3
20260503222433 23 29 0.0 1.6 0.00 0.00 0.00 44 1009.5
20260503221931 22 35 1.6 1.6 0.00 0.00 0.00 44 1009.5
20260503221429 22 286 6.4 8.0 0.00 0.00 0.00 46 1009.8
20260503220925 22 258 1.6 1.6 0.00 0.00 0.00 47 1009.8
20260503220422 22 253 3.2 3.2 0.00 0.00 0.00 47 1009.6
20260503215919 21 260 4.8 6.4 0.00 0.00 0.00 49 1009.9
20260503215416 21 281 1.6 1.6 0.00 0.00 0.00 48 1010.0
20260503214914 21 29 0.0 0.0 0.00 0.00 0.00 48 1009.7
20260503214411 21 254 3.2 3.2 0.00 0.00 0.00 49 1009.9
20260503213908 21 331 0.0 0.0 0.00 0.00 0.00 48 1010.0
20260503213406 21 257 0.0 1.6 0.00 0.00 0.00 49 1009.8
20260503212902 21 250 4.8 6.4 0.00 0.00 0.00 48 1010.0
20260503212400 21 228 4.8 6.4 0.00 0.00 0.00 48 1010.2
20260503211857 21 319 1.6 1.6 0.00 0.00 0.00 48 1010.1
20260503211354 21 9 0.0 0.0 0.00 0.00 0.00 47 1010.1
20260503210848 22 276 4.8 6.4 0.00 0.00 0.00 45 1010.2
20260503210347 21 257 3.2 3.2 0.00 0.00 0.00 48 1010.1
20260503205841 20 255 1.6 1.6 0.00 0.00 0.00 50 1010.2
20260503205339 21 242 3.2 3.2 0.00 0.00 0.00 49 1010.2
20260503204835 20 233 6.4 8.0 0.00 0.00 0.00 51 1010.3
20260503204332 20 271 3.2 3.2 0.00 0.00 0.00 51 1010.3
20260503203829 21 353 1.6 1.6 0.00 0.00 0.00 48 1010.2
20260503203327 21 257 0.0 1.6 0.00 0.00 0.00 49 1010.3
20260503202824 21 269 6.4 8.0 0.00 0.00 0.00 48 1010.6
20260503202322 21 27 1.6 3.2 0.00 0.00 0.00 47 1010.5
20260503201820 21 15 1.6 1.6 0.00 0.00 0.00 47 1010.3
20260503201316 20 47 1.6 1.6 0.00 0.00 0.00 48 1010.6
20260503200814 20 258 4.8 6.4 0.00 0.00 0.00 50 1010.8
20260503200309 21 253 6.4 8.0 0.00 0.00 0.00 49 1010.6
20260503195807 21 33 4.8 6.4 0.00 0.00 0.00 48 1010.8
20260503195304 21 245 4.8 6.4 0.00 0.00 0.00 46 1010.9
20260503194801 20 301 4.8 6.4 0.00 0.00 0.00 50 1011.1
20260503194256 20 271 3.2 3.2 0.00 0.00 0.00 51 1011.3
20260503193753 21 244 3.2 3.2 0.00 0.00 0.00 48 1011.1
20260503193249 20 317 0.0 1.6 0.00 0.00 0.00 49 1011.1
20260503192745 21 267 4.8 8.0 0.00 0.00 0.00 48 1011.2
20260503192240 21 285 4.8 6.4 0.00 0.00 0.00 48 1011.1
20260503191737 21 232 6.4 8.0 0.00 0.00 0.00 48 1011.5
20260503191234 21 16 4.8 6.4 0.00 0.00 0.00 48 1011.2
20260503190731 21 238 3.2 3.2 0.00 0.00 0.00 49 1011.5
20260503190228 20 40 3.2 6.4 0.00 0.00 0.00 49 1011.5
20260503185725 20 13 3.2 6.4 0.00 0.00 0.00 48 1011.5
20260503185220 20 2 3.2 3.2 0.00 0.00 0.00 48 1011.6
20260503184715 20 9 3.2 3.2 0.00 0.00 0.00 49 1011.4
20260503184212 20 269 4.8 8.0 0.00 0.00 0.00 51 1011.5
20260503183708 20 322 0.0 0.0 0.00 0.00 0.00 50 1011.7
20260503183206 20 2 1.6 1.6 0.00 0.00 0.00 49 1011.6
20260503182704 20 253 4.8 6.4 0.00 0.00 0.00 50 1011.6
20260503182202 20 222 0.0 0.0 0.00 0.00 0.00 53 1011.6
20260503181658 20 136 1.6 1.6 0.00 0.00 0.00 50 1011.8
20260503181155 20 298 0.0 1.6 0.00 0.00 0.00 52 1011.8
20260503180652 20 259 4.8 6.4 0.00 0.00 0.00 52 1011.8
20260503180150 19 253 4.8 8.0 0.00 0.00 0.00 53 1011.7
20260503175647 19 243 0.0 0.0 0.00 0.00 0.00 52 1011.7
20260503175144 18 271 1.6 1.6 0.00 0.00 0.00 53 1011.7
20260503174640 18 277 6.4 8.0 0.00 0.00 0.00 53 1011.5
20260503174138 18 276 4.8 6.4 0.00 0.00 0.00 55 1011.6
20260503173632 18 236 4.8 6.4 0.00 0.00 0.00 55 1011.4
20260503173129 18 247 8.0 8.0 0.00 0.00 0.00 55 1011.8
20260503172626 18 27 3.2 3.2 0.00 0.00 0.00 55 1011.5
20260503172124 18 228 4.8 6.4 0.00 0.00 0.00 55 1011.4
20260503171620 17 259 4.8 8.0 0.00 0.00 0.00 57 1011.7
20260503171117 18 251 4.8 6.4 0.00 0.00 0.00 56 1011.5
20260503170615 18 243 1.6 3.2 0.00 0.00 0.00 57 1011.5
20260503170111 17 270 3.2 6.4 0.00 0.00 0.00 60 1011.4